Home   Weather   Göttingen   Past weeks

Flag for Germany Past Weather in Göttingen, Lower Saxony, Germany — Yesterday and Last 2 Weeks

46 °F

Light rain. Fog.

Feels Like: 45 °F
Forecast: 43 / 52 °F
Wind: 3 mph from North

Location: Kassel / Calden

Current Time: Oct 24, 2016 at 10:18:04 PM

Latest Report: Oct 24, 2016 at 7:50 PM

Visibility: 1 mi

Pressure: 29.95 "Hg

Humidity: 100%

Dew Point: 46 °F

Location of GöttingenLocation

Past Weather in Göttingen — Graph


Göttingen Temperature Yesterday

Maximum temperature yesterday: 50 °F (at 2:50 PM)
Minimum temperature yesterday: 37 °F (at 7:20 AM)
Average temperature yesterday: 44 °F

High & Low Weather Summary for the Past Weeks

High63 °F (Oct 16, 3:50 PM)100% (Oct 9, 7:50 PM)30.24 "Hg (Oct 9, 7:50 PM)
Low37 °F (Oct 11, 7:20 AM)64% (Oct 16, 3:50 PM)29.77 "Hg (Oct 14, 7:20 PM)
Average47 °F90%30.01 "Hg
* Reported Oct 9 7:20 PM — Oct 24 7:50 PM, Göttingen, Weather by CustomWeather, © 2016

Note: Actual official high and low records may vary slightly from our data, if they occured in-between our weather recording intervals... More about our weather records


Göttingen Weather History for the Previous 24 Hours

Scroll right to see more
Time TempWeatherWind HumidityBarometerVisibility
7:50 PM
Mon, Oct 24
46 °FLight rain. Fog.3 mph100%29.95 "Hg1 mi
7:20 PM46 °FLight rain. Fog.6 mph100%29.95 "Hg1 mi
6:50 PM46 °FLight rain. Fog.3 mph100%29.95 "Hg2 mi
6:20 PM46 °FLight rain. Low clouds.2 mph100%29.95 "Hg2 mi
5:50 PM46 °FLight rain. Low clouds.5 mph100%29.92 "Hg2 mi
5:20 PM46 °FLight rain. Fog.7 mph100%29.92 "Hg2 mi
4:50 PM46 °FLight rain. Fog.6 mph100%29.92 "Hg2 mi
4:20 PM46 °FRain. Fog.3 mph100%29.92 "Hg2 mi
3:50 PM46 °FRain. Fog.3 mph100%29.92 "Hg2 mi
3:20 PM46 °FLight rain. Fog.5 mph100%29.92 "Hg2 mi
2:50 PM46 °FLight rain. Fog.6 mph100%29.92 "Hg2 mi
2:20 PM46 °FLight rain. Fog.6 mph100%29.92 "Hg2 mi
1:20 PM45 °FLight rain. Fog.6 mph100%29.95 "Hg3 mi
12:50 PM45 °FLight rain. Fog.7 mph100%29.95 "Hg3 mi
12:20 PM45 °FLight rain. Fog.6 mph100%29.95 "Hg3 mi
11:50 AM45 °FClear.5 mph100%29.95 "Hg4 mi
11:20 AM45 °FClear.7 mph100%29.95 "Hg4 mi
10:50 AM45 °FFog.5 mph100%29.98 "Hg3 mi
10:20 AM45 °FFog.5 mph100%29.98 "Hg3 mi
9:50 AM45 °FFog.3 mph100%29.98 "Hg3 mi
9:20 AM43 °FFog.3 mph100%29.95 "Hg2 mi
8:50 AM41 °FFog.1 mph100%29.95 "Hg2 mi
8:20 AM41 °FFog.1 mph100%29.95 "Hg3 mi
7:50 AM41 °FFog.2 mph100%29.95 "Hg3 mi
7:20 AM41 °FClear.3 mph100%29.95 "Hg5 mi
6:50 AM41 °FClear.1 mph100%29.95 "Hg5 mi
Weather by CustomWeather, © 2016

See weather overviewHow to use our weather pages